Location: São Paulo
(23.5507°S, 46.6334°W)
Time: 10:06:10
(UTC-03:00)

Explorer 7 - Pass Details

Date: 25 February 2026
Orbit: 430 x 541 km, 50.2° (Epoch: 11 March)

Event Time Altitude Azimuth Distance (km) Brightness Sun altitude
Rises 23:41:06 0° 276° (W) 2,700 - -56.4°
Reaches altitude 10° 23:44:18 10° 250° (WSW) 1,818 - -56.6°
Maximum altitude 23:46:29 14° 218° (SW) 1,587 - -56.7°
Drops below altitude 10° 23:48:40 10° 186° (S) 1,820 - -56.8°
Sets 23:51:54 0° 159° (SSE) 2,706 - -57.0°
